ECO2174 SBVT-SBCF

Flight info

Callsign ECO2174
Flight time 0h 45m
Altitude 30000
Route OPLOX UZ34 NIPDA
Aircraft B738/M-SDE2E3FGHIRWXY/LB1

Departure

Time 2026-05-04 18:57
Airport Eurico de Aguiar Salles International Airport (SBVT)

Arrival

Time 2026-05-04 19:43
Airport Tancredo Neves International Airport (SBCF)
Time Latitude Longitude Altitude Speed Heading
2026-05-04 18:33 -20.25647 -40.28813 12 ft 0 kts 302°
2026-05-04 18:48 -20.25654 -40.28804 12 ft 1 kts 339°
2026-05-04 18:48 -20.25667 -40.28805 11 ft 2 kts 35°
2026-05-04 18:48 -20.25678 -40.28815 11 ft 2 kts 29°
2026-05-04 18:48 -20.25687 -40.28820 11 ft 1 kts 28°
2026-05-04 18:49 -20.25688 -40.28820 11 ft 0 kts 28°
2026-05-04 18:51 -20.25686 -40.28819 11 ft 1 kts 28°
2026-05-04 18:51 -20.25680 -40.28809 11 ft 2 kts 104°
2026-05-04 18:52 -20.25708 -40.28772 10 ft 10 kts 130°
2026-05-04 18:52 -20.25727 -40.28746 9 ft 0 kts 123°
2026-05-04 18:52 -20.25735 -40.28731 9 ft 5 kts 119°
2026-05-04 18:53 -20.25764 -40.28671 9 ft 11 kts 104°
2026-05-04 18:53 -20.25706 -40.28621 10 ft 13 kts 25°
2026-05-04 18:53 -20.25615 -40.28564 12 ft 15 kts 38°
2026-05-04 18:53 -20.25519 -40.28501 14 ft 17 kts 28°
2026-05-04 18:54 -20.25403 -40.28428 14 ft 21 kts 31°
2026-05-04 18:54 -20.25264 -40.28331 14 ft 26 kts 33°
2026-05-04 18:54 -20.25103 -40.28226 13 ft 26 kts 25°
2026-05-04 18:54 -20.25048 -40.28196 12 ft 1 kts 28°
2026-05-04 18:55 -20.25016 -40.28178 12 ft 10 kts 28°
2026-05-04 18:55 -20.24791 -40.28079 7 ft 14 kts 343°
2026-05-04 18:55 -20.24831 -40.28115 8 ft 10 kts 142°
2026-05-04 18:56 -20.24858 -40.28106 7 ft 0 kts 174°
2026-05-04 18:56 -20.24863 -40.28105 7 ft 10 kts 174°
2026-05-04 18:56 -20.25201 -40.28058 16 ft 85 kts 172°
2026-05-04 18:56 -20.25993 -40.27943 10 ft 145 kts 171°
2026-05-04 18:57 -20.27067 -40.27751 546 ft 153 kts 168°
2026-05-04 18:57 -20.28187 -40.27568 1023 ft 170 kts 173°
2026-05-04 18:57 -20.29349 -40.27423 1679 ft 175 kts 173°
2026-05-04 18:57 -20.30623 -40.27258 1889 ft 197 kts 172°
2026-05-04 18:58 -20.32063 -40.27038 2050 ft 220 kts 172°
2026-05-04 18:58 -20.33626 -40.26805 2359 ft 232 kts 172°
2026-05-04 18:58 -20.35236 -40.26586 2844 ft 234 kts 176°
2026-05-04 18:58 -20.36881 -40.26741 3335 ft 236 kts 193°
2026-05-04 18:59 -20.38383 -40.27463 3810 ft 240 kts 212°
2026-05-04 18:59 -20.39607 -40.28682 4315 ft 243 kts 231°
2026-05-04 18:59 -20.40395 -40.30271 4750 ft 248 kts 250°
2026-05-04 18:59 -20.40641 -40.32099 5186 ft 253 kts 269°
2026-05-04 19:00 -20.40288 -40.33938 5631 ft 257 kts 290°
2026-05-04 19:00 -20.39369 -40.35568 6123 ft 258 kts 306°
2026-05-04 19:00 -20.38235 -40.37083 6500 ft 263 kts 307°
2026-05-04 19:00 -20.37074 -40.38587 6959 ft 264 kts 308°
2026-05-04 19:01 -20.35917 -40.40102 7369 ft 266 kts 308°
2026-05-04 19:01 -20.34738 -40.41645 7811 ft 267 kts 308°
2026-05-04 19:01 -20.33560 -40.43182 8162 ft 272 kts 308°
2026-05-04 19:01 -20.32363 -40.44760 8145 ft 272 kts 308°
2026-05-04 19:02 -20.31189 -40.46300 8154 ft 268 kts 308°
2026-05-04 19:02 -20.30005 -40.47852 8158 ft 270 kts 308°
2026-05-04 19:02 -20.28822 -40.49410 8157 ft 271 kts 308°
2026-05-04 19:02 -20.27645 -40.50946 8154 ft 268 kts 308°
2026-05-04 19:03 -20.26457 -40.52504 8155 ft 268 kts 308°
2026-05-04 19:03 -20.25286 -40.54043 8155 ft 269 kts 308°
2026-05-04 19:03 -20.24091 -40.55589 8234 ft 273 kts 309°
2026-05-04 19:03 -20.22855 -40.57140 8730 ft 272 kts 309°
2026-05-04 19:04 -20.21635 -40.58680 9130 ft 274 kts 309°
2026-05-04 19:04 -20.20406 -40.60238 9550 ft 276 kts 309°
2026-05-04 19:04 -20.19181 -40.61797 9970 ft 277 kts 309°
2026-05-04 19:04 -20.17937 -40.63379 10385 ft 279 kts 309°
2026-05-04 19:05 -20.16686 -40.64966 10793 ft 280 kts 309°
2026-05-04 19:05 -20.15442 -40.66544 11178 ft 283 kts 309°
2026-05-04 19:05 -20.14168 -40.68169 11653 ft 291 kts 309°
2026-05-04 19:05 -20.12861 -40.69839 12293 ft 298 kts 309°
2026-05-04 19:06 -20.11482 -40.71595 12466 ft 323 kts 309°
2026-05-04 19:06 -20.10000 -40.73471 12750 ft 341 kts 310°
2026-05-04 19:06 -20.08448 -40.75418 13470 ft 345 kts 310°
2026-05-04 19:06 -20.06872 -40.77381 14167 ft 350 kts 310°
2026-05-04 19:07 -20.05281 -40.79351 14913 ft 354 kts 310°
2026-05-04 19:07 -20.03681 -40.81317 15632 ft 357 kts 310°
2026-05-04 19:07 -20.02051 -40.83306 16341 ft 361 kts 311°
2026-05-04 19:07 -20.00394 -40.85317 17027 ft 364 kts 311°
2026-05-04 19:08 -19.98718 -40.87344 17708 ft 368 kts 311°
2026-05-04 19:08 -19.97030 -40.89384 18367 ft 371 kts 310°
2026-05-04 19:08 -19.95329 -40.91455 19022 ft 374 kts 310°
2026-05-04 19:08 -19.93621 -40.93558 19659 ft 377 kts 310°
2026-05-04 19:09 -19.91929 -40.95652 20279 ft 380 kts 309°
2026-05-04 19:09 -19.90219 -40.97793 20895 ft 382 kts 309°
2026-05-04 19:09 -19.88511 -40.99953 21492 ft 385 kts 309°
2026-05-04 19:09 -19.86943 -41.02277 22047 ft 386 kts 296°
2026-05-04 19:10 -19.86075 -41.04964 22633 ft 385 kts 278°
2026-05-04 19:10 -19.85749 -41.07785 23186 ft 387 kts 275°
2026-05-04 19:10 -19.85442 -41.10596 23646 ft 391 kts 275°
2026-05-04 19:10 -19.85141 -41.13496 24177 ft 393 kts 275°
2026-05-04 19:11 -19.84862 -41.16380 24655 ft 396 kts 274°
2026-05-04 19:11 -19.84592 -41.19298 25143 ft 399 kts 274°
2026-05-04 19:11 -19.84326 -41.22205 25600 ft 402 kts 274°
2026-05-04 19:11 -19.84055 -41.25161 26058 ft 404 kts 274°
2026-05-04 19:12 -19.83779 -41.28180 26513 ft 407 kts 274°
2026-05-04 19:12 -19.83231 -41.34150 27361 ft 412 kts 274°
2026-05-04 19:12 -19.82951 -41.37185 27769 ft 415 kts 274°
2026-05-04 19:13 -19.82667 -41.40266 28178 ft 418 kts 275°
2026-05-04 19:13 -19.82382 -41.43339 28574 ft 420 kts 275°
2026-05-04 19:13 -19.82099 -41.46382 28950 ft 422 kts 275°
2026-05-04 19:13 -19.81805 -41.49544 29329 ft 425 kts 275°
2026-05-04 19:14 -19.81514 -41.52661 29698 ft 427 kts 275°
2026-05-04 19:14 -19.81222 -41.55777 30050 ft 429 kts 275°
2026-05-04 19:14 -19.80924 -41.58942 30168 ft 433 kts 275°
2026-05-04 19:15 -19.80326 -41.65293 30154 ft 430 kts 275°
2026-05-04 19:15 -19.79732 -41.71575 30156 ft 429 kts 275°
2026-05-04 19:16 -19.79147 -41.77742 30155 ft 431 kts 275°
2026-05-04 19:16 -19.78544 -41.84067 30155 ft 430 kts 275°
2026-05-04 19:17 -19.77943 -41.90361 30155 ft 430 kts 275°
2026-05-04 19:17 -19.77339 -41.96668 30155 ft 430 kts 275°
2026-05-04 19:18 -19.76731 -42.02982 30158 ft 430 kts 275°
2026-05-04 19:18 -19.76119 -42.09307 30173 ft 431 kts 275°
2026-05-04 19:19 -19.75501 -42.15624 30187 ft 431 kts 275°
2026-05-04 19:19 -19.74863 -42.21966 30201 ft 431 kts 275°
2026-05-04 19:20 -19.74229 -42.28256 30209 ft 432 kts 275°
2026-05-04 19:20 -19.73587 -42.34597 30209 ft 432 kts 275°
2026-05-04 19:21 -19.72941 -42.40957 30209 ft 431 kts 275°
2026-05-04 19:21 -19.72301 -42.47253 30209 ft 431 kts 275°
2026-05-04 19:22 -19.71653 -42.53593 30209 ft 431 kts 275°
2026-05-04 19:22 -19.71008 -42.59904 30209 ft 431 kts 275°
2026-05-04 19:23 -19.70366 -42.66153 30209 ft 431 kts 276°
2026-05-04 19:23 -19.69721 -42.72428 30209 ft 431 kts 275°
2026-05-04 19:24 -19.69065 -42.78792 30209 ft 431 kts 275°
2026-05-04 19:24 -19.68416 -42.85062 30209 ft 431 kts 275°
2026-05-04 19:25 -19.67760 -42.91369 30209 ft 431 kts 275°
2026-05-04 19:25 -19.67106 -42.97655 30172 ft 433 kts 275°
2026-05-04 19:25 -19.66776 -43.00806 29713 ft 433 kts 275°
2026-05-04 19:26 -19.66444 -43.03980 29057 ft 430 kts 276°
2026-05-04 19:26 -19.66139 -43.07128 28425 ft 427 kts 273°
2026-05-04 19:26 -19.66015 -43.10222 27848 ft 422 kts 270°
2026-05-04 19:26 -19.66167 -43.13290 27252 ft 418 kts 262°
2026-05-04 19:27 -19.66682 -43.16297 26683 ft 413 kts 258°
2026-05-04 19:27 -19.67283 -43.19223 26087 ft 410 kts 257°
2026-05-04 19:27 -19.67900 -43.22162 25485 ft 407 kts 257°
2026-05-04 19:27 -19.68505 -43.25030 24913 ft 403 kts 257°
2026-05-04 19:28 -19.69113 -43.27910 24324 ft 400 kts 257°
2026-05-04 19:28 -19.69724 -43.30795 23747 ft 397 kts 257°
2026-05-04 19:28 -19.70321 -43.33613 23167 ft 393 kts 257°
2026-05-04 19:28 -19.70918 -43.36430 22606 ft 390 kts 257°
2026-05-04 19:29 -19.71512 -43.39232 22019 ft 387 kts 257°
2026-05-04 19:29 -19.72094 -43.41976 21469 ft 383 kts 257°
2026-05-04 19:29 -19.72671 -43.44699 20903 ft 380 kts 257°
2026-05-04 19:29 -19.73242 -43.47390 20346 ft 377 kts 257°
2026-05-04 19:30 -19.73767 -43.50084 19779 ft 375 kts 261°
2026-05-04 19:30 -19.74058 -43.52833 19224 ft 372 kts 267°
2026-05-04 19:30 -19.73977 -43.55547 18662 ft 369 kts 276°
2026-05-04 19:30 -19.73576 -43.58232 18139 ft 366 kts 279°
2026-05-04 19:31 -19.73112 -43.60859 17570 ft 364 kts 280°
2026-05-04 19:31 -19.72646 -43.63462 17029 ft 361 kts 280°
2026-05-04 19:31 -19.72187 -43.66025 16496 ft 358 kts 280°
2026-05-04 19:31 -19.71727 -43.68599 15969 ft 355 kts 280°
2026-05-04 19:32 -19.71273 -43.71141 15435 ft 353 kts 280°
2026-05-04 19:32 -19.70756 -43.73679 14884 ft 351 kts 286°
2026-05-04 19:32 -19.69850 -43.76039 14358 ft 349 kts 299°
2026-05-04 19:32 -19.68409 -43.78080 13833 ft 348 kts 314°
2026-05-04 19:33 -19.66648 -43.79798 13496 ft 337 kts 318°
2026-05-04 19:33 -19.64943 -43.81363 13129 ft 320 kts 318°
2026-05-04 19:33 -19.63327 -43.82841 13041 ft 297 kts 318°
2026-05-04 19:33 -19.61803 -43.84241 12941 ft 277 kts 318°
2026-05-04 19:34 -19.60376 -43.85556 12610 ft 270 kts 318°
2026-05-04 19:34 -19.58973 -43.86852 12166 ft 267 kts 318°
2026-05-04 19:34 -19.57583 -43.88137 11701 ft 265 kts 318°
2026-05-04 19:34 -19.56218 -43.89399 11372 ft 258 kts 318°
2026-05-04 19:35 -19.54884 -43.90633 11053 ft 252 kts 318°
2026-05-04 19:35 -19.53585 -43.91834 10636 ft 251 kts 318°
2026-05-04 19:35 -19.52264 -43.93056 10189 ft 250 kts 318°
2026-05-04 19:35 -19.50953 -43.94267 9801 ft 248 kts 318°
2026-05-04 19:36 -19.49657 -43.95463 9371 ft 247 kts 318°
2026-05-04 19:36 -19.48366 -43.96659 8927 ft 247 kts 318°
2026-05-04 19:36 -19.47084 -43.97843 8566 ft 244 kts 318°
2026-05-04 19:36 -19.45825 -43.99015 8121 ft 245 kts 315°
2026-05-04 19:37 -19.44827 -44.00485 7549 ft 247 kts 289°
2026-05-04 19:37 -19.44634 -44.02268 7118 ft 242 kts 259°
2026-05-04 19:37 -19.45200 -44.03915 6762 ft 237 kts 236°
2026-05-04 19:37 -19.46205 -44.05244 6521 ft 233 kts 227°
2026-05-04 19:38 -19.47267 -44.06492 6243 ft 220 kts 227°
2026-05-04 19:38 -19.48287 -44.07618 6043 ft 206 kts 217°
2026-05-04 19:38 -19.49573 -44.08212 6016 ft 207 kts 188°
2026-05-04 19:38 -19.51026 -44.08055 5769 ft 210 kts 160°
2026-05-04 19:39 -19.52191 -44.07237 5349 ft 196 kts 140°
2026-05-04 19:39 -19.53162 -44.06322 5069 ft 181 kts 137°
2026-05-04 19:39 -19.54089 -44.05447 4881 ft 178 kts 139°
2026-05-04 19:39 -19.54996 -44.04609 4685 ft 168 kts 139°
2026-05-04 19:40 -19.55866 -44.03806 4466 ft 163 kts 139°
2026-05-04 19:40 -19.56694 -44.03043 4248 ft 154 kts 138°
2026-05-04 19:40 -19.57489 -44.02309 4054 ft 152 kts 139°
2026-05-04 19:40 -19.58282 -44.01577 3850 ft 152 kts 140°
2026-05-04 19:41 -19.59084 -44.00835 3643 ft 152 kts 140°
2026-05-04 19:41 -19.59872 -44.00108 3439 ft 151 kts 139°
2026-05-04 19:41 -19.60657 -43.99382 3239 ft 150 kts 139°
2026-05-04 19:41 -19.61449 -43.98651 3037 ft 151 kts 138°
2026-05-04 19:42 -19.62237 -43.97927 2834 ft 149 kts 140°
2026-05-04 19:42 -19.63002 -43.97233 2752 ft 148 kts 138°
2026-05-04 19:42 -19.63691 -43.96590 2752 ft 108 kts 141°
2026-05-04 19:42 -19.64155 -43.96167 2752 ft 70 kts 141°
2026-05-04 19:43 -19.64365 -43.95929 2752 ft 26 kts 84°
2026-05-04 19:43 -19.64280 -43.95857 2752 ft 14 kts 12°
2026-05-04 19:43 -19.64188 -43.95898 2752 ft 16 kts 320°
2026-05-04 19:43 -19.64098 -43.95980 2752 ft 18 kts 319°
2026-05-04 19:44 -19.63991 -43.96079 2752 ft 22 kts 319°
2026-05-04 19:44 -19.63864 -43.96196 2752 ft 25 kts 319°
2026-05-04 19:44 -19.63728 -43.96325 2752 ft 26 kts 320°
2026-05-04 19:44 -19.63610 -43.96442 2752 ft 22 kts 318°
2026-05-04 19:45 -19.63487 -43.96552 2752 ft 23 kts 320°
2026-05-04 19:45 -19.63376 -43.96655 2752 ft 20 kts 319°
2026-05-04 19:45 -19.63263 -43.96701 2752 ft 18 kts 26°
2026-05-04 19:45 -19.63157 -43.96685 2752 ft 16 kts 325°
2026-05-04 19:46 -19.63060 -43.96717 2752 ft 15 kts 35°
2026-05-04 19:46 -19.63028 -43.96682 2752 ft 0 kts 49°